When you browse on this site, cookies collect data to enhance your experience and personalize the content and advertising you see.
Visit our Privacy Policy to learn more. By continuing to use the site, you agree to this use of cookies and data.
  • In Romania
  • List of Countries
  • For 7 days
  • Water Temperature
  • Satellite Maps
  • Weather Map
  • Weather Widgets
  • user-avatar
    Login

    Hourly Weather Ajuterique

    Today, 18 April, Thursday

    Time Temperature Precipitation Wind Pressure Humidity
    00:00 +22°C° 0 mm 0 mps 698 mmHg 80%
    01:00 +21°C° 0 mm 0 mps 697 mmHg 82%
    02:00 +21°C° 0 mm 0 mps 697 mmHg 85%
    03:00 +22°C° 0 mm 1 mps 696 mmHg 87%
    04:00 +22°C° 0 mm 1 mps 697 mmHg 88%
    05:00 +22°C° 0 mm 1 mps 697 mmHg 89%
    06:00 +22°C° 0 mm 1 mps 697 mmHg 90%
    07:00 +25°C° 0 mm 1 mps 697 mmHg 77%
    08:00 +28°C° 0 mm 1 mps 698 mmHg 65%
    09:00 +31°C° 0 mm 1 mps 699 mmHg 52%
    10:00 +32°C° 0 mm 1 mps 699 mmHg 46%
    11:00 +35°C° 0 mm 2 mps 698 mmHg 40%
    12:00 +37°C° 0 mm 2 mps 698 mmHg 34%
    13:00 +36°C° 0 mm 2 mps 698 mmHg 35%
    14:00 +36°C° 0 mm 2 mps 697 mmHg 37%
    15:00 +35°C° 0 mm 2 mps 696 mmHg 38%
    16:00 +34°C° 0 mm 2 mps 696 mmHg 43%
    17:00 +31°C° 0 mm 2 mps 696 mmHg 47%
    18:00 +30°C° 0 mm 2 mps 696 mmHg 52%
    19:00 +29°C° 0 mm 2 mps 696 mmHg 59%
    20:00 +27°C° 0 mm 2 mps 697 mmHg 67%
    21:00 +26°C° 0 mm 2 mps 697 mmHg 74%
    22:00 +25°C° 0 mm 2 mps 697 mmHg 78%
    23:00 +25°C° 0 mm 2 mps 697 mmHg 82%

    Tomorrow, 19 April, Friday

    Time Temperature Precipitation Wind Pressure Humidity
    00:00 +24°C° 0 mm 2 mps 697 mmHg 87%
    01:00 +24°C° 0 mm 2 mps 697 mmHg 88%
    02:00 +24°C° 0 mm 1 mps 697 mmHg 90%
    03:00 +23°C° 0 mm 1 mps 696 mmHg 92%
    04:00 +23°C° 0 mm 1 mps 697 mmHg 91%
    05:00 +23°C° 0 mm 1 mps 697 mmHg 90%
    06:00 +23°C° 0 mm 1 mps 697 mmHg 90%
    07:00 +26°C° 0 mm 1 mps 698 mmHg 75%
    08:00 +30°C° 0 mm 1 mps 699 mmHg 61%
    09:00 +33°C° 0 mm 1 mps 700 mmHg 47%
    10:00 +35°C° 0.1 mm 2 mps 700 mmHg 43%
    11:00 +36°C° 0.1 mm 3 mps 699 mmHg 40%
    12:00 +36°C° 0.1 mm 4 mps 699 mmHg 36%
    13:00 +36°C° 0 mm 4 mps 699 mmHg 38%
    14:00 +35°C° 0 mm 5 mps 698 mmHg 40%
    15:00 +35°C° 0 mm 5 mps 697 mmHg 41%
    16:00 +33°C° 0 mm 4 mps 698 mmHg 45%
    17:00 +32°C° 0 mm 4 mps 698 mmHg 49%
    18:00 +29°C° 0 mm 3 mps 698 mmHg 53%
    19:00 +28°C° 0 mm 3 mps 698 mmHg 62%
    20:00 +26°C° 0 mm 3 mps 699 mmHg 71%
    21:00 +25°C° 0 mm 2 mps 700 mmHg 79%
    22:00 +24°C° 0 mm 2 mps 700 mmHg 82%
    23:00 +24°C° 0 mm 2 mps 700 mmHg 85%

    Day after tomorrow, 20 April, Saturday

    Time Temperature Precipitation Wind Pressure Humidity
    00:00 +24°C° 0 mm 2 mps 700 mmHg 89%
    01:00 +22°C° 0.3 mm 3 mps 699 mmHg 88%
    02:00 +22°C° 0.3 mm 3 mps 699 mmHg 87%
    03:00 +22°C° 0.3 mm 3 mps 699 mmHg 86%
    04:00 +21°C° 0.2 mm 3 mps 699 mmHg 86%
    05:00 +21°C° 0.2 mm 3 mps 699 mmHg 86%
    06:00 +20°C° 0.2 mm 3 mps 700 mmHg 86%
    07:00 +21°C° 0.3 mm 3 mps 700 mmHg 86%
    08:00 +21°C° 0.3 mm 3 mps 700 mmHg 86%
    09:00 +21°C° 0.3 mm 3 mps 701 mmHg 86%
    10:00 +22°C° 0.3 mm 4 mps 701 mmHg 83%
    11:00 +22°C° 0.3 mm 4 mps 700 mmHg 80%
    12:00 +23°C° 0.3 mm 4 mps 700 mmHg 78%
    13:00 +23°C° 0.1 mm 4 mps 700 mmHg 76%
    14:00 +23°C° 0.1 mm 4 mps 699 mmHg 74%
    15:00 +23°C° 0.1 mm 4 mps 699 mmHg 72%
    16:00 +22°C° 0 mm 4 mps 699 mmHg 73%
    17:00 +21°C° 0 mm 3 mps 699 mmHg 73%
    18:00 +20°C° 0 mm 3 mps 699 mmHg 74%
    19:00 +20°C° 0 mm 3 mps 700 mmHg 73%
    20:00 +19°C° 0 mm 2 mps 700 mmHg 72%
    21:00 +18°C° 0 mm 2 mps 701 mmHg 72%
    22:00 +18°C° 0 mm 2 mps 700 mmHg 68%
    23:00 +18°C° 0 mm 2 mps 700 mmHg 64%

    21 April, Sunday

    Time Temperature Precipitation Wind Pressure Humidity
    00:00 +18°C° 0 mm 2 mps 700 mmHg 61%
    01:00 +18°C° 0 mm 2 mps 700 mmHg 60%
    02:00 +17°C° 0 mm 2 mps 699 mmHg 60%
    03:00 +17°C° 0 mm 2 mps 699 mmHg 60%
    04:00 +17°C° 0 mm 2 mps 699 mmHg 60%
    05:00 +18°C° 0 mm 1 mps 699 mmHg 59%
    06:00 +18°C° 0 mm 1 mps 699 mmHg 59%
    07:00 +20°C° 0 mm 2 mps 700 mmHg 52%
    08:00 +24°C° 0 mm 2 mps 701 mmHg 46%
    09:00 +27°C° 0 mm 3 mps 702 mmHg 39%
    10:00 +29°C° 0 mm 3 mps 702 mmHg 39%
    11:00 +31°C° 0 mm 3 mps 702 mmHg 38%
    12:00 +33°C° 0 mm 3 mps 701 mmHg 37%
    13:00 +34°C° 0 mm 3 mps 700 mmHg 37%
    14:00 +34°C° 0 mm 3 mps 700 mmHg 37%
    15:00 +34°C° 0 mm 3 mps 699 mmHg 37%
    16:00 +31°C° 0 mm 3 mps 699 mmHg 43%
    17:00 +29°C° 0 mm 3 mps 699 mmHg 49%
    18:00 +28°C° 0 mm 2 mps 699 mmHg 56%
    19:00 +26°C° 0 mm 2 mps 700 mmHg 65%
    20:00 +24°C° 0 mm 2 mps 700 mmHg 74%
    21:00 +22°C° 0 mm 1 mps 700 mmHg 82%
    22:00 +22°C° 0 mm 1 mps 700 mmHg 85%
    23:00 +21°C° 0 mm 1 mps 700 mmHg 88%

    22 April, Monday

    Time Temperature Precipitation Wind Pressure Humidity
    00:00 +21°C° 0 mm 1 mps 700 mmHg 91%
    01:00 +21°C° 0 mm 1 mps 699 mmHg 91%
    02:00 +21°C° 0 mm 1 mps 699 mmHg 92%
    03:00 +20°C° 0 mm 1 mps 698 mmHg 93%
    04:00 +21°C° 0 mm 1 mps 699 mmHg 93%
    05:00 +21°C° 0 mm 1 mps 699 mmHg 93%
    06:00 +21°C° 0 mm 1 mps 699 mmHg 93%
    07:00 +24°C° 0 mm 1 mps 700 mmHg 80%
    08:00 +27°C° 0 mm 2 mps 701 mmHg 66%
    09:00 +30°C° 0 mm 2 mps 701 mmHg 53%
    10:00 +31°C° 0 mm 2 mps 701 mmHg 45%
    11:00 +34°C° 0 mm 2 mps 700 mmHg 38%
    12:00 +36°C° 0 mm 3 mps 700 mmHg 31%
    13:00 +36°C° 0 mm 3 mps 699 mmHg 30%
    14:00 +36°C° 0 mm 3 mps 699 mmHg 28%
    15:00 +37°C° 0 mm 3 mps 698 mmHg 27%
    16:00 +35°C° 0 mm 3 mps 698 mmHg 33%
    17:00 +32°C° 0 mm 2 mps 698 mmHg 39%
    18:00 +30°C° 0 mm 2 mps 698 mmHg 45%
    19:00 +28°C° 0 mm 2 mps 699 mmHg 54%
    20:00 +26°C° 0 mm 1 mps 699 mmHg 63%
    21:00 +25°C° 0 mm 1 mps 699 mmHg 73%
    22:00 +24°C° 0 mm 1 mps 699 mmHg 77%
    23:00 +23°C° 0 mm 1 mps 699 mmHg 82%

    23 April, Tuesday

    Time Temperature Precipitation Wind Pressure Humidity
    00:00 +23°C° 0 mm 1 mps 699 mmHg 87%
    01:00 +22°C° 0 mm 1 mps 698 mmHg 88%
    02:00 +20°C° 0 mm 0 mps 698 mmHg 90%
    03:00 +20°C° 0 mm 0 mps 698 mmHg 92%
    04:00 +20°C° 0 mm 0 mps 698 mmHg 92%
    05:00 +20°C° 0 mm 0 mps 698 mmHg 93%
    06:00 +20°C° 0 mm 0 mps 699 mmHg 94%
    07:00 +25°C° 0 mm 1 mps 699 mmHg 76%
    08:00 +28°C° 0 mm 1 mps 700 mmHg 59%
    09:00 +31°C° 0 mm 2 mps 701 mmHg 42%
    10:00 +32°C° 0 mm 2 mps 700 mmHg 37%
    11:00 +35°C° 0 mm 2 mps 700 mmHg 31%
    12:00 +36°C° 0 mm 2 mps 700 mmHg 26%
    13:00 +37°C° 0 mm 3 mps 699 mmHg 25%
    14:00 +37°C° 0 mm 3 mps 698 mmHg 25%
    15:00 +37°C° 0 mm 3 mps 698 mmHg 24%
    16:00 +35°C° 0 mm 2 mps 698 mmHg 30%
    17:00 +32°C° 0 mm 2 mps 698 mmHg 36%
    18:00 +30°C° 0 mm 2 mps 698 mmHg 42%
    19:00 +29°C° 0.1 mm 1 mps 698 mmHg 53%
    20:00 +27°C° 0.1 mm 1 mps 699 mmHg 63%
    21:00 +26°C° 0.1 mm 1 mps 699 mmHg 74%
    22:00 +25°C° 0.2 mm 1 mps 699 mmHg 76%
    23:00 +25°C° 0.2 mm 1 mps 699 mmHg 78%
    Show more